| time (UTC) | temp C | wind direction | speed KPH | gust KPH | rain 1hr cm | rain 24hr cm | rain mn cm | humidity % | barometer mb |
| 20260505210056 | 15 | 287 | 12.9 | 0.0 | 0.00 | 0.00 | 0.00 | 56 | 1002.7 |
| 20260505204554 | 15 | 285 | 11.3 | 0.0 | 0.00 | 0.00 | 0.00 | 57 | 1002.5 |
| 20260505203053 | 15 | 259 | 9.7 | 0.0 | 0.00 | 0.00 | 0.00 | 62 | 1002.1 |
| 20260505201556 | 15 | 286 | 8.0 | 0.0 | 0.00 | 0.00 | 0.00 | 63 | 1001.9 |
| 20260505200049 | 16 | 281 | 8.0 | 0.0 | 0.00 | 0.00 | 0.00 | 65 | 1001.7 |
| 20260505194548 | 16 | 269 | 9.7 | 0.0 | 0.00 | 0.00 | 0.00 | 67 | 1001.4 |
| 20260505193048 | 16 | 295 | 8.0 | 0.0 | 0.00 | 0.00 | 0.00 | 70 | 1001.4 |
| 20260505191601 | 15 | 263 | 9.7 | 0.0 | 0.00 | 0.00 | 0.00 | 73 | 1001.3 |
| 20260505190055 | 15 | 285 | 9.7 | 0.0 | 0.00 | 0.00 | 0.00 | 75 | 1001.3 |
| 20260505184546 | 16 | 292 | 11.3 | 0.0 | 0.00 | 0.00 | 0.00 | 75 | 1001.1 |
| 20260505183109 | 17 | 286 | 12.9 | 0.0 | 0.00 | 0.00 | 0.00 | 76 | 1001.0 |
| 20260505181541 | 18 | 295 | 12.9 | 0.0 | 0.00 | 0.00 | 0.00 | 65 | 1000.6 |
| 20260505180043 | 19 | 269 | 14.5 | 0.0 | 0.00 | 0.00 | 0.00 | 61 | 1000.0 |
| 20260505174540 | 20 | 284 | 11.3 | 0.0 | 0.00 | 0.00 | 0.00 | 60 | 1000.1 |
| 20260505173047 | 20 | 234 | 11.3 | 0.0 | 0.00 | 0.00 | 0.00 | 61 | 999.8 |
| 20260505171544 | 18 | 250 | 9.7 | 0.0 | 0.00 | 0.00 | 0.00 | 64 | 1000.1 |
| 20260505170037 | 18 | 226 | 11.3 | 0.0 | 0.00 | 0.00 | 0.00 | 64 | 999.7 |
| 20260505164535 | 18 | 254 | 12.9 | 0.0 | 0.00 | 0.00 | 0.00 | 63 | 1000.0 |
| 20260505163035 | 19 | 254 | 14.5 | 0.0 | 0.00 | 0.00 | 0.00 | 62 | 999.9 |
| 20260505161533 | 20 | 221 | 17.7 | 0.0 | 0.00 | 0.00 | 0.00 | 60 | 999.6 |
| 20260505153026 | 18 | 161 | 14.5 | 0.0 | 0.00 | 0.00 | 0.00 | 63 | 999.0 |
| 20260505151530 | 18 | 289 | 12.9 | 0.0 | 0.00 | 0.00 | 0.00 | 65 | 999.2 |
| 20260505124558 | 15 | 236 | 8.0 | 0.0 | 0.00 | 0.00 | 0.00 | 78 | 999.0 |
| 20260505123055 | 14 | 160 | 8.0 | 0.0 | 0.00 | 0.00 | 0.00 | 78 | 999.0 |
| 20260505121554 | 13 | 165 | 8.0 | 0.0 | 0.00 | 0.00 | 0.00 | 79 | 998.9 |
| 20260505120110 | 13 | 237 | 8.0 | 0.0 | 0.00 | 0.00 | 0.00 | 78 | 998.7 |
| 20260505114553 | 13 | 249 | 8.0 | 0.0 | 0.00 | 0.00 | 0.00 | 79 | 999.0 |
| 20260505113053 | 13 | 206 | 4.8 | 0.0 | 0.00 | 0.00 | 0.00 | 79 | 999.0 |
| 20260505111553 | 13 | 235 | 8.0 | 0.0 | 0.00 | 0.00 | 0.00 | 80 | 999.0 |
| 20260505101543 | 12 | 263 | 3.2 | 0.0 | 0.00 | 0.00 | 0.00 | 79 | 998.8 |
| 20260505100043 | 13 | 285 | 6.4 | 0.0 | 0.00 | 0.00 | 0.00 | 79 | 998.6 |
| 20260505094543 | 13 | 165 | 6.4 | 0.0 | 0.00 | 0.00 | 0.00 | 78 | 998.5 |
| 20260505093043 | 13 | 149 | 6.4 | 0.0 | 0.00 | 0.00 | 0.00 | 77 | 998.2 |
| 20260505091540 | 13 | 197 | 6.4 | 0.0 | 0.00 | 0.00 | 0.00 | 76 | 998.4 |
| 20260505090140 | 13 | 200 | 6.4 | 0.0 | 0.00 | 0.00 | 0.00 | 75 | 998.5 |
| 20260505084538 | 13 | 209 | 6.4 | 0.0 | 0.00 | 0.00 | 0.00 | 75 | 998.6 |
| 20260505083035 | 13 | 211 | 8.0 | 0.0 | 0.00 | 0.00 | 0.00 | 73 | 998.9 |
| 20260505081539 | 13 | 217 | 4.8 | 0.0 | 0.00 | 0.00 | 0.00 | 72 | 999.0 |
| 20260505080038 | 14 | 242 | 4.8 | 0.0 | 0.00 | 0.00 | 0.00 | 72 | 999.1 |
| 20260505074533 | 13 | 240 | 6.4 | 0.0 | 0.00 | 0.00 | 0.00 | 71 | 999.0 |
| 20260505073046 | 13 | 180 | 6.4 | 0.0 | 0.00 | 0.00 | 0.00 | 71 | 999.0 |
| 20260505071529 | 13 | 173 | 6.4 | 0.0 | 0.00 | 0.00 | 0.00 | 70 | 999.1 |
| 20260505070028 | 13 | 227 | 8.0 | 0.0 | 0.00 | 0.00 | 0.00 | 69 | 999.1 |
| 20260505064537 | 12 | 149 | 4.8 | 0.0 | 0.00 | 0.00 | 0.00 | 66 | 999.0 |
| 20260505063022 | 12 | 219 | 3.2 | 0.0 | 0.00 | 0.00 | 0.00 | 66 | 999.1 |
| 20260505061530 | 12 | 184 | 4.8 | 0.0 | 0.00 | 0.00 | 0.00 | 65 | 999.1 |
| 20260505060020 | 11 | 207 | 4.8 | 0.0 | 0.00 | 0.00 | 0.00 | 65 | 999.4 |
| 20260505054523 | 11 | 167 | 3.2 | 0.0 | 0.00 | 0.00 | 0.00 | 66 | 999.4 |
| 20260505053016 | 11 | 209 | 3.2 | 0.0 | 0.00 | 0.00 | 0.00 | 65 | 999.6 |
| 20260505051517 | 11 | 244 | 3.2 | 0.0 | 0.00 | 0.00 | 0.00 | 66 | 999.6 |
| 20260505041512 | 12 | 250 | 1.6 | 0.0 | 0.00 | 0.00 | 0.00 | 66 | 1000.0 |
| 20260505040006 | 12 | 217 | 0.0 | 0.0 | 0.00 | 0.00 | 0.05 | 67 | 1000.3 |
| 20260505034509 | 12 | 216 | 0.0 | 0.0 | 0.00 | 0.00 | 0.05 | 66 | 1000.3 |
| 20260505033005 | 12 | 215 | 0.0 | 0.0 | 0.00 | 0.00 | 0.05 | 65 | 1000.3 |
| 20260505031514 | 12 | 213 | 1.6 | 0.0 | 0.00 | 0.00 | 0.05 | 64 | 1000.3 |
| 20260505030003 | 13 | 211 | 0.0 | 0.0 | 0.00 | 0.00 | 0.05 | 63 | 1000.4 |
| 20260505024506 | 13 | 209 | 1.6 | 0.0 | 0.00 | 0.00 | 0.05 | 62 | 1000.5 |
| 20260505023003 | 13 | 215 | 0.0 | 0.0 | 0.00 | 0.00 | 0.05 | 61 | 1000.6 |
| 20260505021542 | 13 | 218 | 1.6 | 0.0 | 0.00 | 0.00 | 0.05 | 61 | 1000.6 |
| 20260505020042 | 14 | 257 | 3.2 | 0.0 | 0.00 | 0.00 | 0.05 | 60 | 1000.6 |
| 20260505014543 | 14 | 200 | 3.2 | 0.0 | 0.00 | 0.00 | 0.05 | 60 | 1000.6 |
| 20260505013047 | 15 | 192 | 3.2 | 0.0 | 0.00 | 0.00 | 0.05 | 59 | 1000.8 |
| 20260505011542 | 15 | 199 | 3.2 | 0.0 | 0.00 | 0.00 | 0.05 | 59 | 1000.9 |
| 20260505010041 | 15 | 179 | 4.8 | 0.0 | 0.00 | 0.00 | 0.05 | 59 | 1000.6 |
| 20260505004548 | 15 | 202 | 4.8 | 0.0 | 0.00 | 0.00 | 0.05 | 59 | 1000.9 |
| 20260505003042 | 16 | 212 | 4.8 | 0.0 | 0.00 | 0.00 | 0.05 | 58 | 1000.8 |
| 20260505001540 | 16 | 285 | 6.4 | 0.0 | 0.00 | 0.00 | 0.05 | 57 | 1000.8 |
| 20260505000056 | 17 | 250 | 4.8 | 0.0 | 0.00 | 0.00 | 0.05 | 56 | 1000.7 |
| 20260504234540 | 17 | 199 | 4.8 | 0.0 | 0.00 | 0.00 | 0.05 | 55 | 1000.5 |
| 20260504233039 | 18 | 196 | 4.8 | 0.0 | 0.00 | 0.00 | 0.05 | 55 | 1000.5 |
| 20260504231537 | 18 | 188 | 4.8 | 0.0 | 0.00 | 0.00 | 0.05 | 53 | 1000.4 |
| 20260504230044 | 18 | 206 | 6.4 | 0.0 | 0.00 | 0.00 | 0.05 | 52 | 1000.5 |
| 20260504224537 | 19 | 217 | 6.4 | 0.0 | 0.00 | 0.00 | 0.05 | 50 | 1000.4 |
| 20260504223036 | 19 | 191 | 8.0 | 0.0 | 0.00 | 0.00 | 0.05 | 49 | 1000.5 |
| 20260504221549 | 20 | 267 | 11.3 | 0.0 | 0.00 | 0.00 | 0.05 | 46 | 1000.5 |
| 20260504220034 | 20 | 272 | 8.0 | 0.0 | 0.00 | 0.00 | 0.05 | 47 | 1000.7 |
| 20260504214535 | 20 | 238 | 9.7 | 0.0 | 0.00 | 0.00 | 0.05 | 47 | 1000.7 |
| 20260504213041 | 20 | 206 | 9.7 | 0.0 | 0.00 | 0.00 | 0.05 | 46 | 1000.8 |